Stündliche Wetter Otradino

Heute, 10 April, Samstag

Zeit Temperatur Niederschläge Wind Luftdruck Luftfeuchtigkeit
00:00 +1°C° 0 mm 3 m/S 750 mmHg 74%
01:00 +1°C° 0 mm 3 m/S 750 mmHg 76%
02:00 +1°C° 0 mm 3 m/S 750 mmHg 78%
03:00 0°C° 0 mm 4 m/S 751 mmHg 80%
04:00 0°C° 0 mm 4 m/S 750 mmHg 80%
05:00 0°C° 0 mm 5 m/S 750 mmHg 81%
06:00 0°C° 0 mm 5 m/S 750 mmHg 81%
07:00 0°C° 0.3 mm 5 m/S 750 mmHg 82%
08:00 0°C° 0.3 mm 5 m/S 750 mmHg 82%
09:00 +1°C° 0 mm 5 m/S 750 mmHg 82%
10:00 +1°C° 0.4 mm 6 m/S 750 mmHg 84%
11:00 +1°C° 0.4 mm 6 m/S 750 mmHg 86%
12:00 +1°C° 0.4 mm 6 m/S 750 mmHg 88%
13:00 +1°C° 0 mm 6 m/S 750 mmHg 88%
14:00 +1°C° 0 mm 6 m/S 750 mmHg 88%
15:00 +1°C° 0 mm 6 m/S 750 mmHg 88%
16:00 +1°C° 0 mm 5 m/S 749 mmHg 89%
17:00 +1°C° 0 mm 5 m/S 749 mmHg 90%
18:00 +1°C° 0 mm 5 m/S 749 mmHg 91%
19:00 +1°C° 0 mm 5 m/S 749 mmHg 92%
20:00 +1°C° 0 mm 5 m/S 749 mmHg 93%
21:00 0°C° 0 mm 5 m/S 749 mmHg 94%
22:00 0°C° 0 mm 5 m/S 749 mmHg 94%
23:00 0°C° 0 mm 5 m/S 749 mmHg 95%

Morgen, 11 April, Sonntag

Zeit Temperatur Niederschläge Wind Luftdruck Luftfeuchtigkeit
00:00 0°C° 0 mm 5 m/S 749 mmHg 95%
01:00 0°C° 0 mm 5 m/S 750 mmHg 95%
02:00 0°C° 0 mm 5 m/S 750 mmHg 95%
03:00 0°C° 0 mm 5 m/S 750 mmHg 95%
04:00 0°C° 0 mm 5 m/S 750 mmHg 95%
05:00 0°C° 0 mm 5 m/S 751 mmHg 96%
06:00 0°C° 0 mm 5 m/S 751 mmHg 96%
07:00 +1°C° 0 mm 6 m/S 751 mmHg 93%
08:00 +2°C° 0 mm 6 m/S 751 mmHg 91%
09:00 +3°C° 0 mm 7 m/S 751 mmHg 88%
10:00 +4°C° 0.2 mm 7 m/S 752 mmHg 86%
11:00 +4°C° 0.2 mm 7 m/S 752 mmHg 85%
12:00 +5°C° 0.2 mm 6 m/S 752 mmHg 84%
13:00 +5°C° 0.5 mm 6 m/S 752 mmHg 85%
14:00 +5°C° 0.5 mm 6 m/S 752 mmHg 86%
15:00 +5°C° 0.5 mm 6 m/S 752 mmHg 87%
16:00 +5°C° 0 mm 6 m/S 752 mmHg 88%
17:00 +6°C° 0 mm 5 m/S 752 mmHg 88%
18:00 +6°C° 0 mm 5 m/S 752 mmHg 89%
19:00 +6°C° 0 mm 5 m/S 752 mmHg 91%
20:00 +5°C° 0 mm 5 m/S 752 mmHg 92%
21:00 +5°C° 0 mm 5 m/S 752 mmHg 94%
22:00 +5°C° 0 mm 5 m/S 752 mmHg 94%
23:00 +5°C° 0 mm 4 m/S 752 mmHg 94%

übermorgen, 12 April, Montag

Zeit Temperatur Niederschläge Wind Luftdruck Luftfeuchtigkeit
00:00 +5°C° 0 mm 4 m/S 752 mmHg 94%
01:00 +5°C° 0 mm 4 m/S 752 mmHg 94%
02:00 +5°C° 0 mm 4 m/S 752 mmHg 94%
03:00 +5°C° 0 mm 4 m/S 752 mmHg 94%
04:00 +5°C° 0 mm 3 m/S 752 mmHg 93%
05:00 +5°C° 0 mm 3 m/S 752 mmHg 93%
06:00 +5°C° 0 mm 3 m/S 752 mmHg 93%
07:00 +8°C° 0 mm 3 m/S 752 mmHg 84%
08:00 +11°C° 0 mm 4 m/S 753 mmHg 75%
09:00 +13°C° 0 mm 4 m/S 753 mmHg 66%
10:00 +15°C° 0 mm 4 m/S 753 mmHg 58%
11:00 +17°C° 0 mm 5 m/S 753 mmHg 49%
12:00 +20°C° 0 mm 5 m/S 753 mmHg 40%
13:00 +21°C° 0 mm 6 m/S 752 mmHg 38%
14:00 +21°C° 0 mm 6 m/S 752 mmHg 36%
15:00 +21°C° 0 mm 6 m/S 752 mmHg 35%
16:00 +20°C° 0 mm 6 m/S 752 mmHg 40%
17:00 +19°C° 0 mm 5 m/S 752 mmHg 45%
18:00 +18°C° 0 mm 4 m/S 752 mmHg 51%
19:00 +15°C° 0 mm 4 m/S 753 mmHg 57%
20:00 +14°C° 0 mm 4 m/S 753 mmHg 63%
21:00 +12°C° 0 mm 4 m/S 753 mmHg 69%
22:00 +11°C° 0 mm 4 m/S 753 mmHg 70%
23:00 +10°C° 0 mm 4 m/S 753 mmHg 70%

13 April, Dienstag

Zeit Temperatur Niederschläge Wind Luftdruck Luftfeuchtigkeit
00:00 +10°C° 0 mm 4 m/S 753 mmHg 70%
01:00 +8°C° 0 mm 4 m/S 753 mmHg 69%
02:00 +8°C° 0 mm 3 m/S 753 mmHg 69%
03:00 +8°C° 0 mm 3 m/S 753 mmHg 68%
04:00 +7°C° 0 mm 3 m/S 753 mmHg 69%
05:00 +7°C° 0 mm 3 m/S 753 mmHg 70%
06:00 +7°C° 0 mm 3 m/S 753 mmHg 71%
07:00 +8°C° 0 mm 4 m/S 753 mmHg 64%
08:00 +10°C° 0 mm 5 m/S 753 mmHg 57%
09:00 +13°C° 0 mm 5 m/S 753 mmHg 49%
10:00 +15°C° 0 mm 6 m/S 753 mmHg 44%
11:00 +16°C° 0 mm 6 m/S 752 mmHg 39%
12:00 +19°C° 0 mm 6 m/S 752 mmHg 34%
13:00 +19°C° 0 mm 6 m/S 752 mmHg 33%
14:00 +20°C° 0 mm 6 m/S 752 mmHg 32%
15:00 +20°C° 0 mm 6 m/S 752 mmHg 31%
16:00 +19°C° 0 mm 5 m/S 751 mmHg 36%
17:00 +17°C° 0 mm 5 m/S 751 mmHg 40%
18:00 +17°C° 0 mm 4 m/S 751 mmHg 44%
19:00 +15°C° 0 mm 4 m/S 751 mmHg 49%
20:00 +13°C° 0 mm 4 m/S 751 mmHg 53%
21:00 +12°C° 0 mm 4 m/S 751 mmHg 57%
22:00 +11°C° 0 mm 4 m/S 751 mmHg 59%
23:00 +11°C° 0 mm 4 m/S 751 mmHg 60%

14 April, Mittwoch

Zeit Temperatur Niederschläge Wind Luftdruck Luftfeuchtigkeit
00:00 +10°C° 0 mm 3 m/S 751 mmHg 61%
01:00 +9°C° 0 mm 3 m/S 751 mmHg 62%
02:00 +9°C° 0 mm 3 m/S 751 mmHg 63%
03:00 +8°C° 0 mm 3 m/S 751 mmHg 63%
04:00 +8°C° 0 mm 3 m/S 751 mmHg 65%
05:00 +8°C° 0 mm 3 m/S 750 mmHg 67%
06:00 +8°C° 0 mm 3 m/S 750 mmHg 69%
07:00 +10°C° 0 mm 4 m/S 750 mmHg 62%
08:00 +12°C° 0 mm 4 m/S 750 mmHg 55%
09:00 +14°C° 0 mm 5 m/S 750 mmHg 48%
10:00 +16°C° 0 mm 5 m/S 750 mmHg 43%
11:00 +17°C° 0 mm 5 m/S 750 mmHg 38%
12:00 +20°C° 0 mm 5 m/S 749 mmHg 33%
13:00 +20°C° 0 mm 6 m/S 749 mmHg 32%
14:00 +20°C° 0 mm 6 m/S 749 mmHg 30%
15:00 +21°C° 0 mm 6 m/S 748 mmHg 29%
16:00 +20°C° 0 mm 5 m/S 748 mmHg 34%
17:00 +18°C° 0 mm 4 m/S 748 mmHg 39%
18:00 +17°C° 0 mm 3 m/S 748 mmHg 43%
19:00 +16°C° 0 mm 3 m/S 748 mmHg 48%
20:00 +14°C° 0 mm 3 m/S 748 mmHg 52%
21:00 +12°C° 0 mm 3 m/S 748 mmHg 56%
22:00 +12°C° 0 mm 3 m/S 747 mmHg 58%
23:00 +11°C° 0 mm 3 m/S 747 mmHg 60%

15 April, Donnerstag

Zeit Temperatur Niederschläge Wind Luftdruck Luftfeuchtigkeit
00:00 +10°C° 0 mm 3 m/S 747 mmHg 62%
01:00 +10°C° 0 mm 3 m/S 747 mmHg 63%
02:00 +9°C° 0 mm 3 m/S 747 mmHg 65%
03:00 +9°C° 0 mm 3 m/S 747 mmHg 66%
04:00 +9°C° 0 mm 3 m/S 747 mmHg 66%
05:00 +8°C° 0 mm 3 m/S 747 mmHg 65%
06:00 +8°C° 0 mm 3 m/S 747 mmHg 65%
07:00 +10°C° 0 mm 4 m/S 746 mmHg 59%
08:00 +12°C° 0 mm 4 m/S 746 mmHg 54%
09:00 +14°C° 0 mm 5 m/S 746 mmHg 49%
10:00 +15°C° 0 mm 5 m/S 746 mmHg 44%
11:00 +16°C° 0 mm 5 m/S 745 mmHg 40%
12:00 +19°C° 0 mm 5 m/S 745 mmHg 36%
13:00 +19°C° 0 mm 5 m/S 744 mmHg 35%
14:00 +19°C° 0 mm 5 m/S 744 mmHg 35%
15:00 +20°C° 0 mm 5 m/S 743 mmHg 34%
16:00 +19°C° 0 mm 5 m/S 743 mmHg 38%
17:00 +18°C° 0 mm 4 m/S 742 mmHg 42%
18:00 +17°C° 0 mm 4 m/S 742 mmHg 46%
19:00 +15°C° 0 mm 4 m/S 742 mmHg 50%
20:00 +14°C° 0 mm 3 m/S 741 mmHg 54%
21:00 +13°C° 0 mm 3 m/S 741 mmHg 59%
22:00 +12°C° 0 mm 4 m/S 741 mmHg 64%
23:00 +12°C° 0 mm 4 m/S 741 mmHg 70%
Mehr zeigen

Wir brauchen deine Erlaubnis

Meteoprog und unser Service Anbieter werden persönliche Daten aufbewahren, so wie Cookies, Geräte Bezeichnung oder ähnliche Technologien von deinem Gerät und Prozess, so wie Persönliche Daten Inhalte und Werbungen, genauso wie social Media und den Verkehr zu analysieren.

  • Aufbewahrung und/oder Zugang zu deiner Geräte Informationen.

    Cookies, Geräte Bezeichnung oder andere Informationen, können aufbewahrt oder Zugang zu deinem Gerät erhalten, für den Grund, der oben angegeben wird.

  • Personalisierte Werbung und Inhalte, Messungen, Einblick in das Publikum und Produkt Entwicklung.

    Werbungen und Inhalte können personalisiert werden, basierend auf ein Profil. Mehr Daten können besser personalisierte Werbungen und Inhalte hinzufügen. Werbung und Inhalte können gezeigt und gemessen werden. Einblicke über das Publikum, welche die Werbung gesehen haben und den Inhalt, können abgeleitet werden. So wie Daten können genutzt werden, um es zu verbessern oder die Benutzer Erfahrung zu verbessern das System und die Software.

Wenn du “Ich stimme zu” klickst, erlaubst du uns, die Cookies zu benutzen die Geräte Bezeichnung, den Web oder ähnliche Technologien zu benutzen. Deine Settings, können in deinem Gerät bei deinem Browser geändert werden.

Für den bestimmten Zweck, berechtigten Interessen beruhen darauf, mehr als auf den Inhalt. Du kannst mehr darüber in unseren Privaten und Cookie Politik lesen.